FW4323 Weather Reports


time (UTC)temp
C
wind
direction
speed
KPH
gust
KPH
rain 1hr
cm
rain 24hr
cm
rain mn
cm
humidity
%
barometer
mb
20260505024527 14 155 8.0 19.3 0.00 0.00 0.00 63 1011.6
20260505023026 14 155 11.3 22.5 0.00 0.00 0.00 62 1011.8
20260505021526 15 115 9.7 17.7 0.00 0.00 0.00 60 1011.8
20260505020034 15 148 8.0 19.3 0.00 0.00 0.00 59 1011.6
20260505014534 15 82 12.9 22.5 0.00 0.00 0.00 58 1011.6
20260505013031 15 158 9.7 24.1 0.00 0.00 0.00 57 1011.4
20260505011533 16 121 8.0 16.1 0.00 0.00 0.00 56 1011.2
20260505010022 16 144 11.3 30.6 0.00 0.00 0.00 55 1011.0
20260505004534 16 128 12.9 20.9 0.00 0.00 0.00 55 1010.8
20260505003045 17 142 11.3 25.7 0.00 0.00 0.00 54 1010.4
20260505001522 17 150 8.0 20.9 0.00 0.00 0.00 54 1009.9
20260505000021 17 96 12.9 29.0 0.00 0.00 0.00 52 1009.6
20260504234518 17 165 14.5 25.7 0.00 0.00 0.00 52 1009.2
20260504233018 18 136 14.5 24.1 0.00 0.00 0.00 51 1009.0
20260504231518 18 142 11.3 29.0 0.00 0.00 0.00 50 1008.8
20260504230016 19 155 9.7 29.0 0.00 0.00 0.00 48 1008.3
20260504224518 20 115 12.9 30.6 0.00 0.00 0.00 47 1008.1
20260504223016 20 111 16.1 32.2 0.00 0.00 0.00 46 1007.9
20260504221515 21 139 12.9 25.7 0.00 0.00 0.00 42 1007.9
20260504220013 21 140 11.3 24.1 0.00 0.00 0.00 39 1007.7
20260504214517 22 175 8.0 32.2 0.00 0.00 0.00 39 1007.8
20260504213021 22 148 11.3 25.7 0.00 0.00 0.00 39 1007.7
20260504211528 22 128 8.0 24.1 0.00 0.00 0.00 39 1007.7
20260504210010 22 123 12.9 24.1 0.00 0.00 0.00 38 1007.7
20260504204508 22 138 9.7 33.8 0.00 0.00 0.00 38 1007.7
20260504203008 21 143 11.3 32.2 0.00 0.00 0.00 38 1007.9
20260504201506 22 138 19.3 35.4 0.00 0.00 0.00 37 1007.9
20260504200007 22 110 16.1 30.6 0.00 0.00 0.00 36 1008.0
20260504194505 21 154 16.1 30.6 0.00 0.00 0.00 36 1008.1
20260504193005 22 161 16.1 38.6 0.00 0.00 0.00 36 1008.1
20260504191502 21 165 12.9 35.4 0.00 0.00 0.00 36 1008.0
20260504190000 21 137 12.9 33.8 0.00 0.00 0.00 37 1008.3
20260504184501 21 141 11.3 32.2 0.00 0.00 0.00 37 1008.3
20260504183100 21 129 12.9 37.0 0.00 0.00 0.00 36 1008.4
20260504181601 21 169 11.3 30.6 0.00 0.00 0.00 38 1008.5
20260504180055 21 142 14.5 35.4 0.00 0.00 0.00 39 1008.7
20260504174554 21 134 12.9 32.2 0.00 0.00 0.00 38 1008.9
20260504173056 21 173 14.5 35.4 0.00 0.00 0.00 38 1009.0
20260504171549 20 144 16.1 40.2 0.00 0.00 0.00 39 1009.0
20260504081512 6 213 0.0 0.0 0.00 0.00 0.00 69 1011.5
20260504044539 3 213 0.0 0.0 0.00 0.00 0.00 77 1011.8
20260504043042 3 213 0.0 0.0 0.00 0.00 0.00 76 1011.7
20260504041536 3 213 0.0 0.0 0.00 0.00 0.00 75 1011.7
20260504040034 3 213 0.0 0.0 0.00 0.00 0.00 74 1011.4
20260504034531 4 213 0.0 0.0 0.00 0.00 0.00 73 1011.4
20260504033029 4 213 0.0 0.0 0.00 0.00 0.00 72 1011.3
20260504031527 4 213 0.0 0.0 0.00 0.00 0.00 71 1011.2
20260504030026 5 213 0.0 0.0 0.00 0.00 0.00 71 1011.2